Regional Weather Roundup
Issued by NWS

Home | Current Version | Previous Version | Text Only | Print | Product List | Glossary On
Versions: 1 2 3 4 5 6 7 8 9 10 11 12 13 14 15 16 17 18 19 20 21 22 23 24 25 26 27 28 29 30 31 32 33 34 35 36 37 38 39 40 41 42 43 44 45 46 47 48 49 50
000
ASUS44 KJAN 310410
RWRMS

MISSISSIPPI HOURLY WEATHER ROUNDUP
NATIONAL WEATHER SERVICE JACKSON MS
1100 PM CDT SUN AUG 30 2015

NOTE: "FAIR: INDICATES FEW OR NO CLOUDS BELOW 12,000 FEET WITH NO
SIGNIFICANT WEATHER AND/OR OBSTRUCTIONS TO VISIBILITY.

MSZ001>002-007>008-010>013-018>021-025>028-034>036-310500-
NORTHWEST MISSISSIPPI

CITY           SKY/WX    TMP DP  RH WIND       PRES   REMARKS
CLARKSDALE     FAIR      75  73  94 SE7       30.03S
CLEVELAND      FAIR      79  73  83 E10       30.01R
GREENWOOD      CLEAR     77  68  73 E7        30.02R
GREENVILLE     CLEAR     78  69  73 E7        29.99S
OLIVE BRANCH   CLEAR     72  72 100 SE5       30.04S
OXFORD         FAIR      72  68  88 SE8       30.06S
TUNICA         CLEAR     72  70  94 SE5       30.03S
$$

MSZ003>006-009-014>017-022>024-029>033-037>039-310500-
NORTHEAST MISSISSIPPI

CITY           SKY/WX    TMP DP  RH WIND       PRES   REMARKS
COLUMBUS AFB   CLEAR     68  65  90 SE3       30.05F
CORINTH          N/A     70  66  88 SE5       30.06S
GOLDN TRIANGLE CLEAR     72  64  78 E7        30.05S
STARKVILLE     FAIR      72  66  83 E5        30.06R
TUPELO         CLEAR     73  68  84 S5        30.05F
$$

MSZ040-058-310500-
CENTRAL MISSISSIPPI

CITY           SKY/WX    TMP DP  RH WIND       PRES   REMARKS
JACKSON INTL   MOCLDY    80  69  69 E7        30.02R
JACKSON HAWKNS MOCLDY    81  69  67 E7        30.03R
MERIDIAN KEY   CLEAR     74  69  85 NE3       30.05S
MERIDIAN NAS   CLEAR     71  68  90 E3        30.05F
VICKSBURG      PTCLDY    76  65  68 SE3       30.00S
$$

MSZ059>079-310500-
SOUTH MISSISSIPPI

CITY           SKY/WX    TMP DP  RH WIND       PRES   REMARKS
BROOKHAVEN     FAIR      72  66  83 S3        30.04S
HATTIESBURG    CLEAR     74  68  81 CALM      30.03S
MCCOMB         CLEAR     73  65  75 CALM      30.03R
NATCHEZ        PTCLDY    73  66  78 S3        30.03S
PINE BELT      CLEAR     72  63  73 CALM      30.05S
$$

MSZ080>082-310500-
COASTAL MISSISSIPPI

CITY           SKY/WX    TMP DP  RH WIND       PRES   REMARKS
BILOXI         CLEAR     77  72  85 NE2       30.02R
PASCAGOULA     CLEAR     69  68  96 CALM      30.03R
GULFPORT       CLEAR     75  69  81 CALM      30.02R
$$



USA.gov is the U.S. government's official web portal to all federal, state and local government web resources and services.